{"data":{"norad_id":41945,"intl_designator":"2017-007B","name":"INTELSAT 32E (IS-32E)","alt_names":[],"object_type":"PAYLOAD","status":"ACTIVE","operator":null,"country":"ITSO","launch_date":"2017-02-14","launch_site_code":"FRGUI","launch_vehicle":null,"mission":null,"orbit_class":"UNKNOWN","rcs_meters":14.7367,"size_class":null,"mass_kg":null,"dimensions":null,"purposes":["comms"],"wikipedia_slug":null,"has_3d_model":false,"image_url":null,"decayed_at":null,"tle_current":{"epoch":"2026-05-25T04:52:46.293312Z","epoch_age_seconds":57509,"freshness":"FRESH","line1":"1 41945U 17007B   26145.20331358 -.00000271  00000+0  00000+0 0  9990","line2":"2 41945   0.0176 331.4767 0000275 344.3089 317.0214  1.00270562 33990","mean_motion":1.00270562,"eccentricity":2.75e-5,"inclination_deg":0.0176,"raan_deg":331.4767,"arg_perigee_deg":344.3089,"mean_anomaly_deg":317.0214,"bstar":0,"rev_number":3399,"period_min":1436.1144201027,"perigee_km":35785.778276414,"apogee_km":35788.097355529,"semimajor_km":42165.074815972,"source":"CELESTRAK","updated_at":"2026-05-25T13:38:14.335571Z"}}}